Home   Weather   Fresno   Past weeks

Flag for USA Past Weather in Fresno, California, USA — Yesterday and Last 2 Weeks

Now
51 °F

Passing clouds.


Feels Like: 47 °F
Forecast: 36 / 57 °F
Wind: 10 mph from North

Location: Fresno Air Terminal

Current Time: Feb 27, 2017 at 7:28:23 pm

Latest Report: Feb 27, 2017 at 6:53 pm


Visibility: 10 mi

Pressure: 29.91 "Hg

Humidity: 56%

Dew Point: 36 °F

Location of FresnoLocation

Past Weather in Fresno — Graph

°F

Fresno Temperature Yesterday

Maximum temperature yesterday: 57 °F (at 2:53 pm)
Minimum temperature yesterday: 36 °F (at 6:53 am)
Average temperature yesterday: 48 °F

High & Low Weather Summary for the Past Weeks

 TemperatureHumidityPressure
High72 °F (Feb 15, 12:53 pm)100% (Feb 14, 8:53 am)30.29 "Hg (Feb 14, 8:53 am)
Low33 °F (Feb 24, 5:53 am)30% (Feb 24, 2:53 pm)29.29 "Hg (Feb 17, 4:53 pm)
Average52 °F71%30.02 "Hg
* Reported Feb 12 5:53 pm — Feb 27 5:53 pm, Fresno, Weather by CustomWeather, © 2017

Note: Actual official high and low records may vary slightly from our data, if they occured in-between our weather recording intervals... More about our weather records

Advertising

Fresno Weather History for the Previous 24 Hours

Scroll right to see more
 ConditionsComfort  
Time TempWeatherWind HumidityBarometerVisibility
5:53 pm
Mon, Feb 27
53 °FPassing clouds.9 mph52%29.90 "Hg10 mi
4:53 pm56 °FScattered clouds.13 mph47%29.89 "Hg10 mi
3:53 pm56 °FScattered clouds.12 mph47%29.89 "Hg10 mi
2:53 pm58 °FScattered clouds.12 mph47%29.89 "Hg10 mi
1:53 pm57 °FScattered clouds.12 mph49%29.89 "Hg10 mi
12:53 pm57 °FPartly sunny.15 mph51%29.90 "Hg10 mi
11:53 am56 °FPartly sunny.No wind53%29.94 "Hg10 mi
10:53 am54 °FBroken clouds.6 mph57%29.95 "Hg10 mi
9:53 am51 °FBroken clouds.8 mph69%29.95 "Hg10 mi
8:53 am50 °FPartly sunny.3 mph74%29.95 "Hg10 mi
7:53 am49 °FOvercast.3 mph80%29.93 "Hg9 mi
6:53 am47 °FOvercast.6 mph80%29.92 "Hg10 mi
5:53 am46 °FMostly cloudy.3 mph93%29.90 "Hg8 mi
4:53 am48 °FMostly cloudy.3 mph77%29.90 "Hg10 mi
3:53 am47 °FMostly cloudy.No wind80%29.89 "Hg9 mi
2:53 am47 °FMostly cloudy.5 mph77%29.90 "Hg10 mi
1:53 am48 °FMostly cloudy.5 mph74%29.92 "Hg10 mi
12:53 am49 °FMostly cloudy.No wind71%29.93 "Hg10 mi
11:53 pm
Sun, Feb 26
48 °FMostly cloudy.No wind74%29.92 "Hg10 mi
10:53 pm48 °FPassing clouds.3 mph77%29.91 "Hg10 mi
9:53 pm49 °FPartly cloudy.6 mph69%29.91 "Hg10 mi
8:53 pm50 °FPartly cloudy.3 mph61%29.91 "Hg10 mi
7:53 pm52 °FPartly cloudy.3 mph55%29.91 "Hg10 mi
Weather by CustomWeather, © 2017

See weather overviewHow to use our weather pages